Index of /20260430/WXO-DD/model_gdps/15km/00/006
Name Last modified Size Description
Parent Directory -
20260430T00Z_MSC_GDPS_AbsoluteVorticity_IsbL-0200_LatLon0.15_PT006H.grib2 2026-04-30 03:56 1.5M
20260430T00Z_MSC_GDPS_AbsoluteVorticity_IsbL-0250_LatLon0.15_PT006H.grib2 2026-04-30 03:56 1.3M
20260430T00Z_MSC_GDPS_AbsoluteVorticity_IsbL-0500_LatLon0.15_PT006H.grib2 2026-04-30 03:56 1.5M
20260430T00Z_MSC_GDPS_AbsoluteVorticity_IsbL-0700_LatLon0.15_PT006H.grib2 2026-04-30 03:56 1.6M
20260430T00Z_MSC_GDPS_AbsoluteVorticity_IsbL-0850_LatLon0.15_PT006H.grib2 2026-04-30 03:56 1.6M
20260430T00Z_MSC_GDPS_AirTemp-Max_AGL-2m_LatLon0.15_PT006H.grib2 2026-04-30 03:56 735K
20260430T00Z_MSC_GDPS_AirTemp-Min_AGL-2m_LatLon0.15_PT006H.grib2 2026-04-30 03:56 786K
20260430T00Z_MSC_GDPS_AirTemp_AGL-120m_LatLon0.15_PT006H.grib2 2026-04-30 03:56 904K
20260430T00Z_MSC_GDPS_AirTemp_AGL-2m_LatLon0.15_PT006H.grib2 2026-04-30 03:56 1.0M
20260430T00Z_MSC_GDPS_AirTemp_AGL-40m_LatLon0.15_PT006H.grib2 2026-04-30 03:56 806K
20260430T00Z_MSC_GDPS_AirTemp_AGL-80m_LatLon0.15_PT006H.grib2 2026-04-30 03:56 913K
20260430T00Z_MSC_GDPS_AirTemp_IsbL-0001_LatLon0.15_PT006H.grib2 2026-04-30 03:56 660K
20260430T00Z_MSC_GDPS_AirTemp_IsbL-0005_LatLon0.15_PT006H.grib2 2026-04-30 03:56 688K
20260430T00Z_MSC_GDPS_AirTemp_IsbL-0010_LatLon0.15_PT006H.grib2 2026-04-30 03:56 763K
20260430T00Z_MSC_GDPS_AirTemp_IsbL-0020_LatLon0.15_PT006H.grib2 2026-04-30 03:56 783K
20260430T00Z_MSC_GDPS_AirTemp_IsbL-0030_LatLon0.15_PT006H.grib2 2026-04-30 03:56 750K
20260430T00Z_MSC_GDPS_AirTemp_IsbL-0050_LatLon0.15_PT006H.grib2 2026-04-30 03:56 802K
20260430T00Z_MSC_GDPS_AirTemp_IsbL-0100_LatLon0.15_PT006H.grib2 2026-04-30 03:56 949K
20260430T00Z_MSC_GDPS_AirTemp_IsbL-0150_LatLon0.15_PT006H.grib2 2026-04-30 03:56 973K
20260430T00Z_MSC_GDPS_AirTemp_IsbL-0175_LatLon0.15_PT006H.grib2 2026-04-30 03:56 951K
20260430T00Z_MSC_GDPS_AirTemp_IsbL-0200_LatLon0.15_PT006H.grib2 2026-04-30 03:56 965K
20260430T00Z_MSC_GDPS_AirTemp_IsbL-0225_LatLon0.15_PT006H.grib2 2026-04-30 03:56 971K
20260430T00Z_MSC_GDPS_AirTemp_IsbL-0250_LatLon0.15_PT006H.grib2 2026-04-30 03:56 1.0M
20260430T00Z_MSC_GDPS_AirTemp_IsbL-0275_LatLon0.15_PT006H.grib2 2026-04-30 03:56 1.0M
20260430T00Z_MSC_GDPS_AirTemp_IsbL-0300_LatLon0.15_PT006H.grib2 2026-04-30 03:56 1.0M
20260430T00Z_MSC_GDPS_AirTemp_IsbL-0350_LatLon0.15_PT006H.grib2 2026-04-30 03:56 928K
20260430T00Z_MSC_GDPS_AirTemp_IsbL-0400_LatLon0.15_PT006H.grib2 2026-04-30 03:56 939K
20260430T00Z_MSC_GDPS_AirTemp_IsbL-0450_LatLon0.15_PT006H.grib2 2026-04-30 03:56 960K
20260430T00Z_MSC_GDPS_AirTemp_IsbL-0500_LatLon0.15_PT006H.grib2 2026-04-30 03:56 1.0M
20260430T00Z_MSC_GDPS_AirTemp_IsbL-0550_LatLon0.15_PT006H.grib2 2026-04-30 03:56 800K
20260430T00Z_MSC_GDPS_AirTemp_IsbL-0600_LatLon0.15_PT006H.grib2 2026-04-30 03:56 895K
20260430T00Z_MSC_GDPS_AirTemp_IsbL-0650_LatLon0.15_PT006H.grib2 2026-04-30 03:56 921K
20260430T00Z_MSC_GDPS_AirTemp_IsbL-0700_LatLon0.15_PT006H.grib2 2026-04-30 03:56 951K
20260430T00Z_MSC_GDPS_AirTemp_IsbL-0750_LatLon0.15_PT006H.grib2 2026-04-30 03:56 1.0M
20260430T00Z_MSC_GDPS_AirTemp_IsbL-0800_LatLon0.15_PT006H.grib2 2026-04-30 03:56 1.1M
20260430T00Z_MSC_GDPS_AirTemp_IsbL-0850_LatLon0.15_PT006H.grib2 2026-04-30 03:56 1.1M
20260430T00Z_MSC_GDPS_AirTemp_IsbL-0875_LatLon0.15_PT006H.grib2 2026-04-30 03:56 1.1M
20260430T00Z_MSC_GDPS_AirTemp_IsbL-0900_LatLon0.15_PT006H.grib2 2026-04-30 03:56 1.1M
20260430T00Z_MSC_GDPS_AirTemp_IsbL-0925_LatLon0.15_PT006H.grib2 2026-04-30 03:56 1.1M
20260430T00Z_MSC_GDPS_AirTemp_IsbL-0950_LatLon0.15_PT006H.grib2 2026-04-30 03:56 1.1M
20260430T00Z_MSC_GDPS_AirTemp_IsbL-0970_LatLon0.15_PT006H.grib2 2026-04-30 03:56 1.2M
20260430T00Z_MSC_GDPS_AirTemp_IsbL-0985_LatLon0.15_PT006H.grib2 2026-04-30 03:56 1.1M
20260430T00Z_MSC_GDPS_AirTemp_IsbL-1000_LatLon0.15_PT006H.grib2 2026-04-30 03:56 1.1M
20260430T00Z_MSC_GDPS_AirTemp_IsbL-1015_LatLon0.15_PT006H.grib2 2026-04-30 03:56 1.1M
20260430T00Z_MSC_GDPS_Albedo_Sfc_LatLon0.15_PT006H.grib2 2026-04-30 03:56 244K
20260430T00Z_MSC_GDPS_CAPE_Sfc_LatLon0.15_PT006H.grib2 2026-04-30 03:56 3.8M
20260430T00Z_MSC_GDPS_CIN_Sfc_LatLon0.15_PT006H.grib2 2026-04-30 03:56 3.0M
20260430T00Z_MSC_GDPS_CloudWater_EAtm_LatLon0.15_PT006H.grib2 2026-04-30 03:56 527K
20260430T00Z_MSC_GDPS_ConvectivePrecip-Accum_Sfc_LatLon0.15_PT006H.grib2 2026-04-30 03:56 1.6M
20260430T00Z_MSC_GDPS_DewPointDepression_AGL-2m_LatLon0.15_PT006H.grib2 2026-04-30 03:56 764K
20260430T00Z_MSC_GDPS_DewPointDepression_IsbL-0010_LatLon0.15_PT006H.grib2 2026-04-30 03:56 54K
20260430T00Z_MSC_GDPS_DewPointDepression_IsbL-0020_LatLon0.15_PT006H.grib2 2026-04-30 03:56 66K
20260430T00Z_MSC_GDPS_DewPointDepression_IsbL-0030_LatLon0.15_PT006H.grib2 2026-04-30 03:56 72K
20260430T00Z_MSC_GDPS_DewPointDepression_IsbL-0050_LatLon0.15_PT006H.grib2 2026-04-30 03:56 371K
20260430T00Z_MSC_GDPS_DewPointDepression_IsbL-0100_LatLon0.15_PT006H.grib2 2026-04-30 03:56 416K
20260430T00Z_MSC_GDPS_DewPointDepression_IsbL-0150_LatLon0.15_PT006H.grib2 2026-04-30 03:56 468K
20260430T00Z_MSC_GDPS_DewPointDepression_IsbL-0175_LatLon0.15_PT006H.grib2 2026-04-30 03:56 558K
20260430T00Z_MSC_GDPS_DewPointDepression_IsbL-0200_LatLon0.15_PT006H.grib2 2026-04-30 03:56 680K
20260430T00Z_MSC_GDPS_DewPointDepression_IsbL-0225_LatLon0.15_PT006H.grib2 2026-04-30 03:56 797K
20260430T00Z_MSC_GDPS_DewPointDepression_IsbL-0250_LatLon0.15_PT006H.grib2 2026-04-30 03:56 882K
20260430T00Z_MSC_GDPS_DewPointDepression_IsbL-0275_LatLon0.15_PT006H.grib2 2026-04-30 03:56 890K
20260430T00Z_MSC_GDPS_DewPointDepression_IsbL-0300_LatLon0.15_PT006H.grib2 2026-04-30 03:56 930K
20260430T00Z_MSC_GDPS_DewPointDepression_IsbL-0350_LatLon0.15_PT006H.grib2 2026-04-30 03:56 952K
20260430T00Z_MSC_GDPS_DewPointDepression_IsbL-0400_LatLon0.15_PT006H.grib2 2026-04-30 03:56 1.0M
20260430T00Z_MSC_GDPS_DewPointDepression_IsbL-0450_LatLon0.15_PT006H.grib2 2026-04-30 03:56 1.0M
20260430T00Z_MSC_GDPS_DewPointDepression_IsbL-0500_LatLon0.15_PT006H.grib2 2026-04-30 03:56 1.0M
20260430T00Z_MSC_GDPS_DewPointDepression_IsbL-0550_LatLon0.15_PT006H.grib2 2026-04-30 03:56 1.0M
20260430T00Z_MSC_GDPS_DewPointDepression_IsbL-0600_LatLon0.15_PT006H.grib2 2026-04-30 03:56 1.0M
20260430T00Z_MSC_GDPS_DewPointDepression_IsbL-0650_LatLon0.15_PT006H.grib2 2026-04-30 03:56 1.0M
20260430T00Z_MSC_GDPS_DewPointDepression_IsbL-0700_LatLon0.15_PT006H.grib2 2026-04-30 03:56 1.1M
20260430T00Z_MSC_GDPS_DewPointDepression_IsbL-0750_LatLon0.15_PT006H.grib2 2026-04-30 03:56 1.1M
20260430T00Z_MSC_GDPS_DewPointDepression_IsbL-0800_LatLon0.15_PT006H.grib2 2026-04-30 03:56 1.1M
20260430T00Z_MSC_GDPS_DewPointDepression_IsbL-0850_LatLon0.15_PT006H.grib2 2026-04-30 03:56 1.1M
20260430T00Z_MSC_GDPS_DewPointDepression_IsbL-0875_LatLon0.15_PT006H.grib2 2026-04-30 03:56 1.1M
20260430T00Z_MSC_GDPS_DewPointDepression_IsbL-0900_LatLon0.15_PT006H.grib2 2026-04-30 03:56 1.1M
20260430T00Z_MSC_GDPS_DewPointDepression_IsbL-0925_LatLon0.15_PT006H.grib2 2026-04-30 03:56 1.0M
20260430T00Z_MSC_GDPS_DewPointDepression_IsbL-0950_LatLon0.15_PT006H.grib2 2026-04-30 03:56 1.0M
20260430T00Z_MSC_GDPS_DewPointDepression_IsbL-0970_LatLon0.15_PT006H.grib2 2026-04-30 03:56 1.0M
20260430T00Z_MSC_GDPS_DewPointDepression_IsbL-0985_LatLon0.15_PT006H.grib2 2026-04-30 03:56 1.0M
20260430T00Z_MSC_GDPS_DewPointDepression_IsbL-1000_LatLon0.15_PT006H.grib2 2026-04-30 03:56 1.0M
20260430T00Z_MSC_GDPS_DewPointDepression_IsbL-1015_LatLon0.15_PT006H.grib2 2026-04-30 03:56 914K
20260430T00Z_MSC_GDPS_DewPoint_AGL-2m_LatLon0.15_PT006H.grib2 2026-04-30 03:56 605K
20260430T00Z_MSC_GDPS_DownwardLongwaveRadiationFlux-Accum_Sfc_LatLon0.15_PT006H.grib2 2026-04-30 03:56 1.1M
20260430T00Z_MSC_GDPS_DownwardShortwaveRadiationFlux-Accum_NTAtm_LatLon0.15_PT006H.grib2 2026-04-30 03:56 222K
20260430T00Z_MSC_GDPS_DownwardShortwaveRadiationFlux-Accum_Sfc_LatLon0.15_PT006H.grib2 2026-04-30 03:56 789K
20260430T00Z_MSC_GDPS_FreezingRain-Accum1h_Sfc_LatLon0.15_PT006H.grib2 2026-04-30 03:56 29K
20260430T00Z_MSC_GDPS_FreezingRain-Accum3h_Sfc_LatLon0.15_PT006H.grib2 2026-04-30 03:56 40K
20260430T00Z_MSC_GDPS_FreezingRain-Accum6h_Sfc_LatLon0.15_PT006H.grib2 2026-04-30 03:56 62K
20260430T00Z_MSC_GDPS_FreezingRain-Accum_Sfc_LatLon0.15_PT006H.grib2 2026-04-30 03:56 73K
20260430T00Z_MSC_GDPS_GeopotentialHeight_IsbL-0001_LatLon0.15_PT006H.grib2 2026-04-30 03:56 449K
20260430T00Z_MSC_GDPS_GeopotentialHeight_IsbL-0005_LatLon0.15_PT006H.grib2 2026-04-30 03:56 489K
20260430T00Z_MSC_GDPS_GeopotentialHeight_IsbL-0010_LatLon0.15_PT006H.grib2 2026-04-30 03:56 479K
20260430T00Z_MSC_GDPS_GeopotentialHeight_IsbL-0020_LatLon0.15_PT006H.grib2 2026-04-30 03:56 417K
20260430T00Z_MSC_GDPS_GeopotentialHeight_IsbL-0030_LatLon0.15_PT006H.grib2 2026-04-30 03:56 575K
20260430T00Z_MSC_GDPS_GeopotentialHeight_IsbL-0050_LatLon0.15_PT006H.grib2 2026-04-30 03:56 575K
20260430T00Z_MSC_GDPS_GeopotentialHeight_IsbL-0100_LatLon0.15_PT006H.grib2 2026-04-30 03:56 609K
20260430T00Z_MSC_GDPS_GeopotentialHeight_IsbL-0150_LatLon0.15_PT006H.grib2 2026-04-30 03:56 628K
20260430T00Z_MSC_GDPS_GeopotentialHeight_IsbL-0175_LatLon0.15_PT006H.grib2 2026-04-30 03:56 632K
20260430T00Z_MSC_GDPS_GeopotentialHeight_IsbL-0200_LatLon0.15_PT006H.grib2 2026-04-30 03:56 636K
20260430T00Z_MSC_GDPS_GeopotentialHeight_IsbL-0225_LatLon0.15_PT006H.grib2 2026-04-30 03:56 639K
20260430T00Z_MSC_GDPS_GeopotentialHeight_IsbL-0250_LatLon0.15_PT006H.grib2 2026-04-30 03:56 637K
20260430T00Z_MSC_GDPS_GeopotentialHeight_IsbL-0275_LatLon0.15_PT006H.grib2 2026-04-30 03:56 639K
20260430T00Z_MSC_GDPS_GeopotentialHeight_IsbL-0300_LatLon0.15_PT006H.grib2 2026-04-30 03:56 633K
20260430T00Z_MSC_GDPS_GeopotentialHeight_IsbL-0350_LatLon0.15_PT006H.grib2 2026-04-30 03:56 633K
20260430T00Z_MSC_GDPS_GeopotentialHeight_IsbL-0400_LatLon0.15_PT006H.grib2 2026-04-30 03:56 624K
20260430T00Z_MSC_GDPS_GeopotentialHeight_IsbL-0450_LatLon0.15_PT006H.grib2 2026-04-30 03:56 615K
20260430T00Z_MSC_GDPS_GeopotentialHeight_IsbL-0500_LatLon0.15_PT006H.grib2 2026-04-30 03:56 535K
20260430T00Z_MSC_GDPS_GeopotentialHeight_IsbL-0550_LatLon0.15_PT006H.grib2 2026-04-30 03:56 527K
20260430T00Z_MSC_GDPS_GeopotentialHeight_IsbL-0600_LatLon0.15_PT006H.grib2 2026-04-30 03:56 521K
20260430T00Z_MSC_GDPS_GeopotentialHeight_IsbL-0650_LatLon0.15_PT006H.grib2 2026-04-30 03:56 686K
20260430T00Z_MSC_GDPS_GeopotentialHeight_IsbL-0700_LatLon0.15_PT006H.grib2 2026-04-30 03:56 687K
20260430T00Z_MSC_GDPS_GeopotentialHeight_IsbL-0750_LatLon0.15_PT006H.grib2 2026-04-30 03:56 686K
20260430T00Z_MSC_GDPS_GeopotentialHeight_IsbL-0800_LatLon0.15_PT006H.grib2 2026-04-30 03:56 699K
20260430T00Z_MSC_GDPS_GeopotentialHeight_IsbL-0850_LatLon0.15_PT006H.grib2 2026-04-30 03:56 709K
20260430T00Z_MSC_GDPS_GeopotentialHeight_IsbL-0875_LatLon0.15_PT006H.grib2 2026-04-30 03:56 709K
20260430T00Z_MSC_GDPS_GeopotentialHeight_IsbL-0900_LatLon0.15_PT006H.grib2 2026-04-30 03:56 716K
20260430T00Z_MSC_GDPS_GeopotentialHeight_IsbL-0925_LatLon0.15_PT006H.grib2 2026-04-30 03:56 726K
20260430T00Z_MSC_GDPS_GeopotentialHeight_IsbL-0950_LatLon0.15_PT006H.grib2 2026-04-30 03:56 732K
20260430T00Z_MSC_GDPS_GeopotentialHeight_IsbL-0970_LatLon0.15_PT006H.grib2 2026-04-30 03:56 745K
20260430T00Z_MSC_GDPS_GeopotentialHeight_IsbL-0985_LatLon0.15_PT006H.grib2 2026-04-30 03:56 761K
20260430T00Z_MSC_GDPS_GeopotentialHeight_IsbL-1000_LatLon0.15_PT006H.grib2 2026-04-30 03:56 782K
20260430T00Z_MSC_GDPS_GeopotentialHeight_IsbL-1015_LatLon0.15_PT006H.grib2 2026-04-30 03:56 806K
20260430T00Z_MSC_GDPS_Humidex_Sfc_LatLon0.15_PT006H.grib2 2026-04-30 03:56 5.3M
20260430T00Z_MSC_GDPS_IcePellets-Accum1h_Sfc_LatLon0.15_PT006H.grib2 2026-04-30 03:56 6.1K
20260430T00Z_MSC_GDPS_IcePellets-Accum3h_Sfc_LatLon0.15_PT006H.grib2 2026-04-30 03:56 6.8K
20260430T00Z_MSC_GDPS_IcePellets-Accum6h_Sfc_LatLon0.15_PT006H.grib2 2026-04-30 03:56 8.9K
20260430T00Z_MSC_GDPS_IcePellets-Accum_Sfc_LatLon0.15_PT006H.grib2 2026-04-30 03:56 9.8K
20260430T00Z_MSC_GDPS_KIndex_Sfc_LatLon0.15_PT006H.grib2 2026-04-30 03:56 6.3M
20260430T00Z_MSC_GDPS_LatentHeatNetFlux_Sfc_LatLon0.15_PT006H.grib2 2026-04-30 03:56 529K
20260430T00Z_MSC_GDPS_LiftedIndex-MU-VT_IsbL-0500_LatLon0.15_PT006H.grib2 2026-04-30 03:56 5.4M
20260430T00Z_MSC_GDPS_NetLongwaveRadiationFlux-Accum_Sfc_LatLon0.15_PT006H.grib2 2026-04-30 03:56 1.2M
20260430T00Z_MSC_GDPS_NetShortwaveRadiationFlux-Accum_Sfc_LatLon0.15_PT006H.grib2 2026-04-30 03:56 745K
20260430T00Z_MSC_GDPS_O3MixingRatio_Sfc_LatLon0.15_PT006H.grib2 2026-04-30 04:49 2.4M
20260430T00Z_MSC_GDPS_O3_EAtm_LatLon0.15_PT006H.grib2 2026-04-30 04:49 2.5M
20260430T00Z_MSC_GDPS_PlanetaryBoundaryLayerHeight_Sfc_LatLon0.15_PT006H.grib2 2026-04-30 03:56 2.5M
20260430T00Z_MSC_GDPS_Precip-Accum1h_Sfc_LatLon0.15_PT006H.grib2 2026-04-30 03:56 3.1M
20260430T00Z_MSC_GDPS_Precip-Accum3h_Sfc_LatLon0.15_PT006H.grib2 2026-04-30 03:56 3.4M
20260430T00Z_MSC_GDPS_Precip-Accum6h_Sfc_LatLon0.15_PT006H.grib2 2026-04-30 03:56 3.7M
20260430T00Z_MSC_GDPS_Precip-Accum_Sfc_LatLon0.15_PT006H.grib2 2026-04-30 03:56 3.7M
20260430T00Z_MSC_GDPS_PrecipRate_Sfc_LatLon0.15_PT006H.grib2 2026-04-30 03:56 2.9M
20260430T00Z_MSC_GDPS_PrecipType-Instant_Sfc_LatLon0.15_PT006H.grib2 2026-04-30 03:56 1.5M
20260430T00Z_MSC_GDPS_Pressure_MSL_LatLon0.15_PT006H.grib2 2026-04-30 03:56 715K
20260430T00Z_MSC_GDPS_Pressure_PVU-1.5_LatLon0.15_PT006H.grib2 2026-04-30 03:56 5.8M
20260430T00Z_MSC_GDPS_Pressure_PVU-1_LatLon0.15_PT006H.grib2 2026-04-30 03:56 6.0M
20260430T00Z_MSC_GDPS_Pressure_PVU-2_LatLon0.15_PT006H.grib2 2026-04-30 03:56 5.6M
20260430T00Z_MSC_GDPS_Pressure_Sfc_LatLon0.15_PT006H.grib2 2026-04-30 03:56 1.1M
20260430T00Z_MSC_GDPS_RadiativeTemp_Sfc_LatLon0.15_PT006H.grib2 2026-04-30 03:56 491K
20260430T00Z_MSC_GDPS_Rain-Accum1h_Sfc_LatLon0.15_PT006H.grib2 2026-04-30 03:56 1.6M
20260430T00Z_MSC_GDPS_Rain-Accum3h_Sfc_LatLon0.15_PT006H.grib2 2026-04-30 03:56 1.6M
20260430T00Z_MSC_GDPS_Rain-Accum6h_Sfc_LatLon0.15_PT006H.grib2 2026-04-30 03:56 2.3M
20260430T00Z_MSC_GDPS_Rain-Accum_Sfc_LatLon0.15_PT006H.grib2 2026-04-30 03:56 2.6M
20260430T00Z_MSC_GDPS_RelativeHumidity_AGL-2m_LatLon0.15_PT006H.grib2 2026-04-30 03:56 1.0M
20260430T00Z_MSC_GDPS_RelativeHumidity_IsbL-0010_LatLon0.15_PT006H.grib2 2026-04-30 03:56 205K
20260430T00Z_MSC_GDPS_RelativeHumidity_IsbL-0020_LatLon0.15_PT006H.grib2 2026-04-30 03:56 175K
20260430T00Z_MSC_GDPS_RelativeHumidity_IsbL-0030_LatLon0.15_PT006H.grib2 2026-04-30 03:56 270K
20260430T00Z_MSC_GDPS_RelativeHumidity_IsbL-0050_LatLon0.15_PT006H.grib2 2026-04-30 03:56 332K
20260430T00Z_MSC_GDPS_RelativeHumidity_IsbL-0100_LatLon0.15_PT006H.grib2 2026-04-30 03:56 512K
20260430T00Z_MSC_GDPS_RelativeHumidity_IsbL-0150_LatLon0.15_PT006H.grib2 2026-04-30 03:56 664K
20260430T00Z_MSC_GDPS_RelativeHumidity_IsbL-0175_LatLon0.15_PT006H.grib2 2026-04-30 03:56 773K
20260430T00Z_MSC_GDPS_RelativeHumidity_IsbL-0200_LatLon0.15_PT006H.grib2 2026-04-30 03:56 690K
20260430T00Z_MSC_GDPS_RelativeHumidity_IsbL-0225_LatLon0.15_PT006H.grib2 2026-04-30 03:56 779K
20260430T00Z_MSC_GDPS_RelativeHumidity_IsbL-0250_LatLon0.15_PT006H.grib2 2026-04-30 03:56 858K
20260430T00Z_MSC_GDPS_RelativeHumidity_IsbL-0275_LatLon0.15_PT006H.grib2 2026-04-30 03:56 878K
20260430T00Z_MSC_GDPS_RelativeHumidity_IsbL-0300_LatLon0.15_PT006H.grib2 2026-04-30 03:56 920K
20260430T00Z_MSC_GDPS_RelativeHumidity_IsbL-0350_LatLon0.15_PT006H.grib2 2026-04-30 03:56 942K
20260430T00Z_MSC_GDPS_RelativeHumidity_IsbL-0400_LatLon0.15_PT006H.grib2 2026-04-30 03:56 968K
20260430T00Z_MSC_GDPS_RelativeHumidity_IsbL-0450_LatLon0.15_PT006H.grib2 2026-04-30 03:56 1.0M
20260430T00Z_MSC_GDPS_RelativeHumidity_IsbL-0500_LatLon0.15_PT006H.grib2 2026-04-30 03:56 1.0M
20260430T00Z_MSC_GDPS_RelativeHumidity_IsbL-0550_LatLon0.15_PT006H.grib2 2026-04-30 03:56 1.1M
20260430T00Z_MSC_GDPS_RelativeHumidity_IsbL-0600_LatLon0.15_PT006H.grib2 2026-04-30 03:56 1.1M
20260430T00Z_MSC_GDPS_RelativeHumidity_IsbL-0650_LatLon0.15_PT006H.grib2 2026-04-30 03:56 1.1M
20260430T00Z_MSC_GDPS_RelativeHumidity_IsbL-0700_LatLon0.15_PT006H.grib2 2026-04-30 03:56 1.1M
20260430T00Z_MSC_GDPS_RelativeHumidity_IsbL-0750_LatLon0.15_PT006H.grib2 2026-04-30 03:56 1.2M
20260430T00Z_MSC_GDPS_RelativeHumidity_IsbL-0800_LatLon0.15_PT006H.grib2 2026-04-30 03:56 1.2M
20260430T00Z_MSC_GDPS_RelativeHumidity_IsbL-0850_LatLon0.15_PT006H.grib2 2026-04-30 03:56 1.3M
20260430T00Z_MSC_GDPS_RelativeHumidity_IsbL-0875_LatLon0.15_PT006H.grib2 2026-04-30 03:56 1.3M
20260430T00Z_MSC_GDPS_RelativeHumidity_IsbL-0900_LatLon0.15_PT006H.grib2 2026-04-30 03:56 1.3M
20260430T00Z_MSC_GDPS_RelativeHumidity_IsbL-0925_LatLon0.15_PT006H.grib2 2026-04-30 03:56 1.2M
20260430T00Z_MSC_GDPS_RelativeHumidity_IsbL-0950_LatLon0.15_PT006H.grib2 2026-04-30 03:56 1.2M
20260430T00Z_MSC_GDPS_RelativeHumidity_IsbL-0970_LatLon0.15_PT006H.grib2 2026-04-30 03:56 1.2M
20260430T00Z_MSC_GDPS_RelativeHumidity_IsbL-0985_LatLon0.15_PT006H.grib2 2026-04-30 03:56 1.1M
20260430T00Z_MSC_GDPS_RelativeHumidity_IsbL-1000_LatLon0.15_PT006H.grib2 2026-04-30 03:56 1.1M
20260430T00Z_MSC_GDPS_RelativeHumidity_IsbL-1015_LatLon0.15_PT006H.grib2 2026-04-30 03:56 1.0M
20260430T00Z_MSC_GDPS_RelativeVorticity_IsbL-0200_LatLon0.15_PT006H.grib2 2026-04-30 03:56 1.5M
20260430T00Z_MSC_GDPS_RelativeVorticity_IsbL-0250_LatLon0.15_PT006H.grib2 2026-04-30 03:56 1.3M
20260430T00Z_MSC_GDPS_RelativeVorticity_IsbL-0500_LatLon0.15_PT006H.grib2 2026-04-30 03:56 1.5M
20260430T00Z_MSC_GDPS_RelativeVorticity_IsbL-0700_LatLon0.15_PT006H.grib2 2026-04-30 03:56 1.6M
20260430T00Z_MSC_GDPS_RelativeVorticity_IsbL-0850_LatLon0.15_PT006H.grib2 2026-04-30 03:56 1.6M
20260430T00Z_MSC_GDPS_Runoff-Accum_Sfc_LatLon0.15_PT006H.grib2 2026-04-30 03:56 76K
20260430T00Z_MSC_GDPS_SensibleHeatNetFlux_Sfc_LatLon0.15_PT006H.grib2 2026-04-30 03:56 642K
20260430T00Z_MSC_GDPS_ShowalterIndex_IsbL-0500_LatLon0.15_PT006H.grib2 2026-04-30 03:56 6.2M
20260430T00Z_MSC_GDPS_Snow-Accum1h_Sfc_LatLon0.15_PT006H.grib2 2026-04-30 03:56 1.1M
20260430T00Z_MSC_GDPS_Snow-Accum3h_Sfc_LatLon0.15_PT006H.grib2 2026-04-30 03:56 962K
20260430T00Z_MSC_GDPS_Snow-Accum6h_Sfc_LatLon0.15_PT006H.grib2 2026-04-30 03:56 1.3M
20260430T00Z_MSC_GDPS_Snow-Accum_Sfc_LatLon0.15_PT006H.grib2 2026-04-30 03:56 1.5M
20260430T00Z_MSC_GDPS_SnowDensity_Sfc_LatLon0.15_PT006H.grib2 2026-04-30 03:56 254K
20260430T00Z_MSC_GDPS_SnowDepth_Sfc_LatLon0.15_PT006H.grib2 2026-04-30 03:56 1.7M
20260430T00Z_MSC_GDPS_SoilTemp_DBS-0to10cm_LatLon0.15_PT006H.grib2 2026-04-30 03:56 492K
20260430T00Z_MSC_GDPS_SoilTemp_Sfc_LatLon0.15_PT006H.grib2 2026-04-30 03:56 575K
20260430T00Z_MSC_GDPS_SoilVolumetricIceContent_Sfc_LatLon0.15_PT006H.grib2 2026-04-30 03:56 208K
20260430T00Z_MSC_GDPS_SoilVolumetricWaterContent_DBS-0to10cm_LatLon0.15_PT006H.grib2 2026-04-30 03:56 583K
20260430T00Z_MSC_GDPS_SoilVolumetricWaterContent_DBS-0to1cm_LatLon0.15_PT006H.grib2 2026-04-30 03:56 646K
20260430T00Z_MSC_GDPS_SpecificHumidity_AGL-120m_LatLon0.15_PT006H.grib2 2026-04-30 03:56 1.1M
20260430T00Z_MSC_GDPS_SpecificHumidity_AGL-2m_LatLon0.15_PT006H.grib2 2026-04-30 03:56 1.2M
20260430T00Z_MSC_GDPS_SpecificHumidity_AGL-40m_LatLon0.15_PT006H.grib2 2026-04-30 03:56 1.1M
20260430T00Z_MSC_GDPS_SpecificHumidity_AGL-80m_LatLon0.15_PT006H.grib2 2026-04-30 03:56 1.1M
20260430T00Z_MSC_GDPS_SpecificHumidity_IsbL-0001_LatLon0.15_PT006H.grib2 2026-04-30 03:56 1.4M
20260430T00Z_MSC_GDPS_SpecificHumidity_IsbL-0005_LatLon0.15_PT006H.grib2 2026-04-30 03:56 1.3M
20260430T00Z_MSC_GDPS_SpecificHumidity_IsbL-0010_LatLon0.15_PT006H.grib2 2026-04-30 03:56 1.4M
20260430T00Z_MSC_GDPS_SpecificHumidity_IsbL-0020_LatLon0.15_PT006H.grib2 2026-04-30 03:56 1.4M
20260430T00Z_MSC_GDPS_SpecificHumidity_IsbL-0030_LatLon0.15_PT006H.grib2 2026-04-30 03:56 1.4M
20260430T00Z_MSC_GDPS_SpecificHumidity_IsbL-0050_LatLon0.15_PT006H.grib2 2026-04-30 03:56 1.7M
20260430T00Z_MSC_GDPS_SpecificHumidity_IsbL-0100_LatLon0.15_PT006H.grib2 2026-04-30 03:56 1.1M
20260430T00Z_MSC_GDPS_SpecificHumidity_IsbL-0150_LatLon0.15_PT006H.grib2 2026-04-30 03:56 1.3M
20260430T00Z_MSC_GDPS_SpecificHumidity_IsbL-0175_LatLon0.15_PT006H.grib2 2026-04-30 03:56 1.3M
20260430T00Z_MSC_GDPS_SpecificHumidity_IsbL-0200_LatLon0.15_PT006H.grib2 2026-04-30 03:56 1.3M
20260430T00Z_MSC_GDPS_SpecificHumidity_IsbL-0225_LatLon0.15_PT006H.grib2 2026-04-30 03:56 1.3M
20260430T00Z_MSC_GDPS_SpecificHumidity_IsbL-0250_LatLon0.15_PT006H.grib2 2026-04-30 03:56 1.4M
20260430T00Z_MSC_GDPS_SpecificHumidity_IsbL-0275_LatLon0.15_PT006H.grib2 2026-04-30 03:56 1.3M
20260430T00Z_MSC_GDPS_SpecificHumidity_IsbL-0300_LatLon0.15_PT006H.grib2 2026-04-30 03:56 1.2M
20260430T00Z_MSC_GDPS_SpecificHumidity_IsbL-0350_LatLon0.15_PT006H.grib2 2026-04-30 03:56 1.2M
20260430T00Z_MSC_GDPS_SpecificHumidity_IsbL-0400_LatLon0.15_PT006H.grib2 2026-04-30 03:56 1.5M
20260430T00Z_MSC_GDPS_SpecificHumidity_IsbL-0450_LatLon0.15_PT006H.grib2 2026-04-30 03:56 1.6M
20260430T00Z_MSC_GDPS_SpecificHumidity_IsbL-0500_LatLon0.15_PT006H.grib2 2026-04-30 03:56 1.4M
20260430T00Z_MSC_GDPS_SpecificHumidity_IsbL-0550_LatLon0.15_PT006H.grib2 2026-04-30 03:56 1.6M
20260430T00Z_MSC_GDPS_SpecificHumidity_IsbL-0600_LatLon0.15_PT006H.grib2 2026-04-30 03:56 1.7M
20260430T00Z_MSC_GDPS_SpecificHumidity_IsbL-0650_LatLon0.15_PT006H.grib2 2026-04-30 03:56 1.5M
20260430T00Z_MSC_GDPS_SpecificHumidity_IsbL-0700_LatLon0.15_PT006H.grib2 2026-04-30 03:56 1.6M
20260430T00Z_MSC_GDPS_SpecificHumidity_IsbL-0750_LatLon0.15_PT006H.grib2 2026-04-30 03:56 1.7M
20260430T00Z_MSC_GDPS_SpecificHumidity_IsbL-0800_LatLon0.15_PT006H.grib2 2026-04-30 03:56 1.8M
20260430T00Z_MSC_GDPS_SpecificHumidity_IsbL-0850_LatLon0.15_PT006H.grib2 2026-04-30 03:56 1.9M
20260430T00Z_MSC_GDPS_SpecificHumidity_IsbL-0875_LatLon0.15_PT006H.grib2 2026-04-30 03:56 1.9M
20260430T00Z_MSC_GDPS_SpecificHumidity_IsbL-0900_LatLon0.15_PT006H.grib2 2026-04-30 03:56 1.9M
20260430T00Z_MSC_GDPS_SpecificHumidity_IsbL-0925_LatLon0.15_PT006H.grib2 2026-04-30 03:56 1.9M
20260430T00Z_MSC_GDPS_SpecificHumidity_IsbL-0950_LatLon0.15_PT006H.grib2 2026-04-30 03:56 1.6M
20260430T00Z_MSC_GDPS_SpecificHumidity_IsbL-0970_LatLon0.15_PT006H.grib2 2026-04-30 03:56 1.5M
20260430T00Z_MSC_GDPS_SpecificHumidity_IsbL-0985_LatLon0.15_PT006H.grib2 2026-04-30 03:56 1.5M
20260430T00Z_MSC_GDPS_SpecificHumidity_IsbL-1000_LatLon0.15_PT006H.grib2 2026-04-30 03:56 1.5M
20260430T00Z_MSC_GDPS_SpecificHumidity_IsbL-1015_LatLon0.15_PT006H.grib2 2026-04-30 03:56 1.4M
20260430T00Z_MSC_GDPS_SpecificHumidity_Sfc_LatLon0.15_PT006H.grib2 2026-04-30 03:56 663K
20260430T00Z_MSC_GDPS_Thickness_IsbL-0850to0700_LatLon0.15_PT006H.grib2 2026-04-30 03:56 469K
20260430T00Z_MSC_GDPS_Thickness_IsbL-1000to0500_LatLon0.15_PT006H.grib2 2026-04-30 03:56 373K
20260430T00Z_MSC_GDPS_Thickness_IsbL-1000to0850_LatLon0.15_PT006H.grib2 2026-04-30 03:56 489K
20260430T00Z_MSC_GDPS_TotalCloudCover_Sfc_LatLon0.15_PT006H.grib2 2026-04-30 03:56 824K
20260430T00Z_MSC_GDPS_TotalTotalsIndex_Sfc_LatLon0.15_PT006H.grib2 2026-04-30 03:56 6.2M
20260430T00Z_MSC_GDPS_UVIndex-ClearSky_Sfc_LatLon0.15_PT006H.grib2 2026-04-30 04:49 1.1M
20260430T00Z_MSC_GDPS_UVIndex_Sfc_LatLon0.15_PT006H.grib2 2026-04-30 04:49 1.5M
20260430T00Z_MSC_GDPS_UpwardLongwaveRadiationFlux_NTAtm_LatLon0.15_PT006H.grib2 2026-04-30 03:56 833K
20260430T00Z_MSC_GDPS_VerticalVelocity_IsbL-0200_LatLon0.15_PT006H.grib2 2026-04-30 03:56 1.2M
20260430T00Z_MSC_GDPS_VerticalVelocity_IsbL-0250_LatLon0.15_PT006H.grib2 2026-04-30 03:56 1.0M
20260430T00Z_MSC_GDPS_VerticalVelocity_IsbL-0500_LatLon0.15_PT006H.grib2 2026-04-30 03:56 1.3M
20260430T00Z_MSC_GDPS_VerticalVelocity_IsbL-0600_LatLon0.15_PT006H.grib2 2026-04-30 03:56 1.1M
20260430T00Z_MSC_GDPS_VerticalVelocity_IsbL-0700_LatLon0.15_PT006H.grib2 2026-04-30 03:56 1.4M
20260430T00Z_MSC_GDPS_VerticalVelocity_IsbL-0850_LatLon0.15_PT006H.grib2 2026-04-30 03:56 1.6M
20260430T00Z_MSC_GDPS_WindChill_Sfc_LatLon0.15_PT006H.grib2 2026-04-30 03:56 5.3M
20260430T00Z_MSC_GDPS_WindDir_AGL-10m_LatLon0.15_PT006H.grib2 2026-04-30 03:56 1.3M
20260430T00Z_MSC_GDPS_WindDir_AGL-120m_LatLon0.15_PT006H.grib2 2026-04-30 03:56 1.4M
20260430T00Z_MSC_GDPS_WindDir_AGL-40m_LatLon0.15_PT006H.grib2 2026-04-30 03:56 1.4M
20260430T00Z_MSC_GDPS_WindDir_AGL-80m_LatLon0.15_PT006H.grib2 2026-04-30 03:56 1.4M
20260430T00Z_MSC_GDPS_WindDir_IsbL-0001_LatLon0.15_PT006H.grib2 2026-04-30 03:56 700K
20260430T00Z_MSC_GDPS_WindDir_IsbL-0005_LatLon0.15_PT006H.grib2 2026-04-30 03:56 797K
20260430T00Z_MSC_GDPS_WindDir_IsbL-0010_LatLon0.15_PT006H.grib2 2026-04-30 03:56 860K
20260430T00Z_MSC_GDPS_WindDir_IsbL-0020_LatLon0.15_PT006H.grib2 2026-04-30 03:56 946K
20260430T00Z_MSC_GDPS_WindDir_IsbL-0030_LatLon0.15_PT006H.grib2 2026-04-30 03:56 935K
20260430T00Z_MSC_GDPS_WindDir_IsbL-0050_LatLon0.15_PT006H.grib2 2026-04-30 03:56 964K
20260430T00Z_MSC_GDPS_WindDir_IsbL-0100_LatLon0.15_PT006H.grib2 2026-04-30 03:56 1.0M
20260430T00Z_MSC_GDPS_WindDir_IsbL-0150_LatLon0.15_PT006H.grib2 2026-04-30 03:56 1.0M
20260430T00Z_MSC_GDPS_WindDir_IsbL-0175_LatLon0.15_PT006H.grib2 2026-04-30 03:56 1.1M
20260430T00Z_MSC_GDPS_WindDir_IsbL-0200_LatLon0.15_PT006H.grib2 2026-04-30 03:56 1.1M
20260430T00Z_MSC_GDPS_WindDir_IsbL-0225_LatLon0.15_PT006H.grib2 2026-04-30 03:56 1.1M
20260430T00Z_MSC_GDPS_WindDir_IsbL-0250_LatLon0.15_PT006H.grib2 2026-04-30 03:56 1.1M
20260430T00Z_MSC_GDPS_WindDir_IsbL-0275_LatLon0.15_PT006H.grib2 2026-04-30 03:56 1.2M
20260430T00Z_MSC_GDPS_WindDir_IsbL-0300_LatLon0.15_PT006H.grib2 2026-04-30 03:56 1.2M
20260430T00Z_MSC_GDPS_WindDir_IsbL-0350_LatLon0.15_PT006H.grib2 2026-04-30 03:56 1.2M
20260430T00Z_MSC_GDPS_WindDir_IsbL-0400_LatLon0.15_PT006H.grib2 2026-04-30 03:56 1.2M
20260430T00Z_MSC_GDPS_WindDir_IsbL-0450_LatLon0.15_PT006H.grib2 2026-04-30 03:56 1.3M
20260430T00Z_MSC_GDPS_WindDir_IsbL-0500_LatLon0.15_PT006H.grib2 2026-04-30 03:56 1.3M
20260430T00Z_MSC_GDPS_WindDir_IsbL-0550_LatLon0.15_PT006H.grib2 2026-04-30 03:56 1.4M
20260430T00Z_MSC_GDPS_WindDir_IsbL-0600_LatLon0.15_PT006H.grib2 2026-04-30 03:56 1.4M
20260430T00Z_MSC_GDPS_WindDir_IsbL-0650_LatLon0.15_PT006H.grib2 2026-04-30 03:56 1.5M
20260430T00Z_MSC_GDPS_WindDir_IsbL-0700_LatLon0.15_PT006H.grib2 2026-04-30 03:56 1.6M
20260430T00Z_MSC_GDPS_WindDir_IsbL-0750_LatLon0.15_PT006H.grib2 2026-04-30 03:56 1.7M
20260430T00Z_MSC_GDPS_WindDir_IsbL-0800_LatLon0.15_PT006H.grib2 2026-04-30 03:56 1.8M
20260430T00Z_MSC_GDPS_WindDir_IsbL-0850_LatLon0.15_PT006H.grib2 2026-04-30 03:56 1.9M
20260430T00Z_MSC_GDPS_WindDir_IsbL-0875_LatLon0.15_PT006H.grib2 2026-04-30 03:56 2.0M
20260430T00Z_MSC_GDPS_WindDir_IsbL-0900_LatLon0.15_PT006H.grib2 2026-04-30 03:56 2.0M
20260430T00Z_MSC_GDPS_WindDir_IsbL-0925_LatLon0.15_PT006H.grib2 2026-04-30 03:56 2.0M
20260430T00Z_MSC_GDPS_WindDir_IsbL-0950_LatLon0.15_PT006H.grib2 2026-04-30 03:56 2.0M
20260430T00Z_MSC_GDPS_WindDir_IsbL-0970_LatLon0.15_PT006H.grib2 2026-04-30 03:56 2.0M
20260430T00Z_MSC_GDPS_WindDir_IsbL-0985_LatLon0.15_PT006H.grib2 2026-04-30 03:56 2.0M
20260430T00Z_MSC_GDPS_WindDir_IsbL-1000_LatLon0.15_PT006H.grib2 2026-04-30 03:56 2.1M
20260430T00Z_MSC_GDPS_WindDir_IsbL-1015_LatLon0.15_PT006H.grib2 2026-04-30 03:56 2.0M
20260430T00Z_MSC_GDPS_WindGust-Max_AGL-10m_LatLon0.15_PT006H.grib2 2026-04-30 03:56 2.3M
20260430T00Z_MSC_GDPS_WindGust-Min_AGL-10m_LatLon0.15_PT006H.grib2 2026-04-30 03:56 2.2M
20260430T00Z_MSC_GDPS_WindGust_AGL-10m_LatLon0.15_PT006H.grib2 2026-04-30 03:56 2.2M
20260430T00Z_MSC_GDPS_WindSpeed_AGL-10m_LatLon0.15_PT006H.grib2 2026-04-30 03:56 1.1M
20260430T00Z_MSC_GDPS_WindSpeed_AGL-120m_LatLon0.15_PT006H.grib2 2026-04-30 03:56 1.2M
20260430T00Z_MSC_GDPS_WindSpeed_AGL-40m_LatLon0.15_PT006H.grib2 2026-04-30 03:56 1.2M
20260430T00Z_MSC_GDPS_WindSpeed_AGL-80m_LatLon0.15_PT006H.grib2 2026-04-30 03:56 1.2M
20260430T00Z_MSC_GDPS_WindSpeed_IsbL-0001_LatLon0.15_PT006H.grib2 2026-04-30 03:56 646K
20260430T00Z_MSC_GDPS_WindSpeed_IsbL-0005_LatLon0.15_PT006H.grib2 2026-04-30 03:56 700K
20260430T00Z_MSC_GDPS_WindSpeed_IsbL-0010_LatLon0.15_PT006H.grib2 2026-04-30 03:56 637K
20260430T00Z_MSC_GDPS_WindSpeed_IsbL-0020_LatLon0.15_PT006H.grib2 2026-04-30 03:56 671K
20260430T00Z_MSC_GDPS_WindSpeed_IsbL-0030_LatLon0.15_PT006H.grib2 2026-04-30 03:56 870K
20260430T00Z_MSC_GDPS_WindSpeed_IsbL-0050_LatLon0.15_PT006H.grib2 2026-04-30 03:56 913K
20260430T00Z_MSC_GDPS_WindSpeed_IsbL-0100_LatLon0.15_PT006H.grib2 2026-04-30 03:56 1.1M
20260430T00Z_MSC_GDPS_WindSpeed_IsbL-0150_LatLon0.15_PT006H.grib2 2026-04-30 03:56 1.0M
20260430T00Z_MSC_GDPS_WindSpeed_IsbL-0175_LatLon0.15_PT006H.grib2 2026-04-30 03:56 1.0M
20260430T00Z_MSC_GDPS_WindSpeed_IsbL-0200_LatLon0.15_PT006H.grib2 2026-04-30 03:56 1.1M
20260430T00Z_MSC_GDPS_WindSpeed_IsbL-0225_LatLon0.15_PT006H.grib2 2026-04-30 03:56 1.1M
20260430T00Z_MSC_GDPS_WindSpeed_IsbL-0250_LatLon0.15_PT006H.grib2 2026-04-30 03:56 1.1M
20260430T00Z_MSC_GDPS_WindSpeed_IsbL-0275_LatLon0.15_PT006H.grib2 2026-04-30 03:56 1.1M
20260430T00Z_MSC_GDPS_WindSpeed_IsbL-0300_LatLon0.15_PT006H.grib2 2026-04-30 03:56 1.1M
20260430T00Z_MSC_GDPS_WindSpeed_IsbL-0350_LatLon0.15_PT006H.grib2 2026-04-30 03:56 1.1M
20260430T00Z_MSC_GDPS_WindSpeed_IsbL-0400_LatLon0.15_PT006H.grib2 2026-04-30 03:56 1.1M
20260430T00Z_MSC_GDPS_WindSpeed_IsbL-0450_LatLon0.15_PT006H.grib2 2026-04-30 03:56 1.1M
20260430T00Z_MSC_GDPS_WindSpeed_IsbL-0500_LatLon0.15_PT006H.grib2 2026-04-30 03:56 1.1M
20260430T00Z_MSC_GDPS_WindSpeed_IsbL-0550_LatLon0.15_PT006H.grib2 2026-04-30 03:56 1.1M
20260430T00Z_MSC_GDPS_WindSpeed_IsbL-0600_LatLon0.15_PT006H.grib2 2026-04-30 03:56 1.1M
20260430T00Z_MSC_GDPS_WindSpeed_IsbL-0650_LatLon0.15_PT006H.grib2 2026-04-30 03:56 1.4M
20260430T00Z_MSC_GDPS_WindSpeed_IsbL-0700_LatLon0.15_PT006H.grib2 2026-04-30 03:56 1.5M
20260430T00Z_MSC_GDPS_WindSpeed_IsbL-0750_LatLon0.15_PT006H.grib2 2026-04-30 03:56 1.6M
20260430T00Z_MSC_GDPS_WindSpeed_IsbL-0800_LatLon0.15_PT006H.grib2 2026-04-30 03:56 1.7M
20260430T00Z_MSC_GDPS_WindSpeed_IsbL-0850_LatLon0.15_PT006H.grib2 2026-04-30 03:56 1.8M
20260430T00Z_MSC_GDPS_WindSpeed_IsbL-0875_LatLon0.15_PT006H.grib2 2026-04-30 03:56 1.9M
20260430T00Z_MSC_GDPS_WindSpeed_IsbL-0900_LatLon0.15_PT006H.grib2 2026-04-30 03:56 1.9M
20260430T00Z_MSC_GDPS_WindSpeed_IsbL-0925_LatLon0.15_PT006H.grib2 2026-04-30 03:56 1.9M
20260430T00Z_MSC_GDPS_WindSpeed_IsbL-0950_LatLon0.15_PT006H.grib2 2026-04-30 03:56 1.9M
20260430T00Z_MSC_GDPS_WindSpeed_IsbL-0970_LatLon0.15_PT006H.grib2 2026-04-30 03:56 1.9M
20260430T00Z_MSC_GDPS_WindSpeed_IsbL-0985_LatLon0.15_PT006H.grib2 2026-04-30 03:56 1.8M
20260430T00Z_MSC_GDPS_WindSpeed_IsbL-1000_LatLon0.15_PT006H.grib2 2026-04-30 03:56 1.8M
20260430T00Z_MSC_GDPS_WindSpeed_IsbL-1015_LatLon0.15_PT006H.grib2 2026-04-30 03:56 1.8M
20260430T00Z_MSC_GDPS_WindU_AGL-10m_LatLon0.15_PT006H.grib2 2026-04-30 03:56 1.6M
20260430T00Z_MSC_GDPS_WindU_AGL-120m_LatLon0.15_PT006H.grib2 2026-04-30 03:56 968K
20260430T00Z_MSC_GDPS_WindU_AGL-40m_LatLon0.15_PT006H.grib2 2026-04-30 03:56 1.2M
20260430T00Z_MSC_GDPS_WindU_AGL-80m_LatLon0.15_PT006H.grib2 2026-04-30 03:56 969K
20260430T00Z_MSC_GDPS_WindU_IsbL-0001_LatLon0.15_PT006H.grib2 2026-04-30 03:56 507K
20260430T00Z_MSC_GDPS_WindU_IsbL-0005_LatLon0.15_PT006H.grib2 2026-04-30 03:56 701K
20260430T00Z_MSC_GDPS_WindU_IsbL-0010_LatLon0.15_PT006H.grib2 2026-04-30 03:56 713K
20260430T00Z_MSC_GDPS_WindU_IsbL-0020_LatLon0.15_PT006H.grib2 2026-04-30 03:56 740K
20260430T00Z_MSC_GDPS_WindU_IsbL-0030_LatLon0.15_PT006H.grib2 2026-04-30 03:56 746K
20260430T00Z_MSC_GDPS_WindU_IsbL-0050_LatLon0.15_PT006H.grib2 2026-04-30 03:56 705K
20260430T00Z_MSC_GDPS_WindU_IsbL-0100_LatLon0.15_PT006H.grib2 2026-04-30 03:56 917K
20260430T00Z_MSC_GDPS_WindU_IsbL-0150_LatLon0.15_PT006H.grib2 2026-04-30 03:56 1.0M
20260430T00Z_MSC_GDPS_WindU_IsbL-0175_LatLon0.15_PT006H.grib2 2026-04-30 03:56 1.0M
20260430T00Z_MSC_GDPS_WindU_IsbL-0200_LatLon0.15_PT006H.grib2 2026-04-30 03:56 841K
20260430T00Z_MSC_GDPS_WindU_IsbL-0225_LatLon0.15_PT006H.grib2 2026-04-30 03:56 851K
20260430T00Z_MSC_GDPS_WindU_IsbL-0250_LatLon0.15_PT006H.grib2 2026-04-30 03:56 853K
20260430T00Z_MSC_GDPS_WindU_IsbL-0275_LatLon0.15_PT006H.grib2 2026-04-30 03:56 879K
20260430T00Z_MSC_GDPS_WindU_IsbL-0300_LatLon0.15_PT006H.grib2 2026-04-30 03:56 870K
20260430T00Z_MSC_GDPS_WindU_IsbL-0350_LatLon0.15_PT006H.grib2 2026-04-30 03:56 887K
20260430T00Z_MSC_GDPS_WindU_IsbL-0400_LatLon0.15_PT006H.grib2 2026-04-30 03:56 891K
20260430T00Z_MSC_GDPS_WindU_IsbL-0450_LatLon0.15_PT006H.grib2 2026-04-30 03:56 1.1M
20260430T00Z_MSC_GDPS_WindU_IsbL-0500_LatLon0.15_PT006H.grib2 2026-04-30 03:56 1.1M
20260430T00Z_MSC_GDPS_WindU_IsbL-0550_LatLon0.15_PT006H.grib2 2026-04-30 03:56 1.1M
20260430T00Z_MSC_GDPS_WindU_IsbL-0600_LatLon0.15_PT006H.grib2 2026-04-30 03:56 1.1M
20260430T00Z_MSC_GDPS_WindU_IsbL-0650_LatLon0.15_PT006H.grib2 2026-04-30 03:56 1.2M
20260430T00Z_MSC_GDPS_WindU_IsbL-0700_LatLon0.15_PT006H.grib2 2026-04-30 03:56 1.2M
20260430T00Z_MSC_GDPS_WindU_IsbL-0750_LatLon0.15_PT006H.grib2 2026-04-30 03:56 1.3M
20260430T00Z_MSC_GDPS_WindU_IsbL-0800_LatLon0.15_PT006H.grib2 2026-04-30 03:56 1.3M
20260430T00Z_MSC_GDPS_WindU_IsbL-0850_LatLon0.15_PT006H.grib2 2026-04-30 03:56 1.4M
20260430T00Z_MSC_GDPS_WindU_IsbL-0875_LatLon0.15_PT006H.grib2 2026-04-30 03:56 1.4M
20260430T00Z_MSC_GDPS_WindU_IsbL-0900_LatLon0.15_PT006H.grib2 2026-04-30 03:56 1.4M
20260430T00Z_MSC_GDPS_WindU_IsbL-0925_LatLon0.15_PT006H.grib2 2026-04-30 03:56 1.4M
20260430T00Z_MSC_GDPS_WindU_IsbL-0950_LatLon0.15_PT006H.grib2 2026-04-30 03:56 1.4M
20260430T00Z_MSC_GDPS_WindU_IsbL-0970_LatLon0.15_PT006H.grib2 2026-04-30 03:56 1.7M
20260430T00Z_MSC_GDPS_WindU_IsbL-0985_LatLon0.15_PT006H.grib2 2026-04-30 03:56 1.7M
20260430T00Z_MSC_GDPS_WindU_IsbL-1000_LatLon0.15_PT006H.grib2 2026-04-30 03:56 1.7M
20260430T00Z_MSC_GDPS_WindU_IsbL-1015_LatLon0.15_PT006H.grib2 2026-04-30 03:56 1.6M
20260430T00Z_MSC_GDPS_WindV_AGL-10m_LatLon0.15_PT006H.grib2 2026-04-30 03:56 1.3M
20260430T00Z_MSC_GDPS_WindV_AGL-120m_LatLon0.15_PT006H.grib2 2026-04-30 03:56 968K
20260430T00Z_MSC_GDPS_WindV_AGL-40m_LatLon0.15_PT006H.grib2 2026-04-30 03:56 963K
20260430T00Z_MSC_GDPS_WindV_AGL-80m_LatLon0.15_PT006H.grib2 2026-04-30 03:56 968K
20260430T00Z_MSC_GDPS_WindV_IsbL-0001_LatLon0.15_PT006H.grib2 2026-04-30 03:56 562K
20260430T00Z_MSC_GDPS_WindV_IsbL-0005_LatLon0.15_PT006H.grib2 2026-04-30 03:56 865K
20260430T00Z_MSC_GDPS_WindV_IsbL-0010_LatLon0.15_PT006H.grib2 2026-04-30 03:56 803K
20260430T00Z_MSC_GDPS_WindV_IsbL-0020_LatLon0.15_PT006H.grib2 2026-04-30 03:56 855K
20260430T00Z_MSC_GDPS_WindV_IsbL-0030_LatLon0.15_PT006H.grib2 2026-04-30 03:56 856K
20260430T00Z_MSC_GDPS_WindV_IsbL-0050_LatLon0.15_PT006H.grib2 2026-04-30 03:56 907K
20260430T00Z_MSC_GDPS_WindV_IsbL-0100_LatLon0.15_PT006H.grib2 2026-04-30 03:56 1.1M
20260430T00Z_MSC_GDPS_WindV_IsbL-0150_LatLon0.15_PT006H.grib2 2026-04-30 03:56 1.0M
20260430T00Z_MSC_GDPS_WindV_IsbL-0175_LatLon0.15_PT006H.grib2 2026-04-30 03:56 1.0M
20260430T00Z_MSC_GDPS_WindV_IsbL-0200_LatLon0.15_PT006H.grib2 2026-04-30 03:56 842K
20260430T00Z_MSC_GDPS_WindV_IsbL-0225_LatLon0.15_PT006H.grib2 2026-04-30 03:56 907K
20260430T00Z_MSC_GDPS_WindV_IsbL-0250_LatLon0.15_PT006H.grib2 2026-04-30 03:56 908K
20260430T00Z_MSC_GDPS_WindV_IsbL-0275_LatLon0.15_PT006H.grib2 2026-04-30 03:56 935K
20260430T00Z_MSC_GDPS_WindV_IsbL-0300_LatLon0.15_PT006H.grib2 2026-04-30 03:56 925K
20260430T00Z_MSC_GDPS_WindV_IsbL-0350_LatLon0.15_PT006H.grib2 2026-04-30 03:56 878K
20260430T00Z_MSC_GDPS_WindV_IsbL-0400_LatLon0.15_PT006H.grib2 2026-04-30 03:56 880K
20260430T00Z_MSC_GDPS_WindV_IsbL-0450_LatLon0.15_PT006H.grib2 2026-04-30 03:56 1.1M
20260430T00Z_MSC_GDPS_WindV_IsbL-0500_LatLon0.15_PT006H.grib2 2026-04-30 03:56 1.1M
20260430T00Z_MSC_GDPS_WindV_IsbL-0550_LatLon0.15_PT006H.grib2 2026-04-30 03:56 1.1M
20260430T00Z_MSC_GDPS_WindV_IsbL-0600_LatLon0.15_PT006H.grib2 2026-04-30 03:56 1.1M
20260430T00Z_MSC_GDPS_WindV_IsbL-0650_LatLon0.15_PT006H.grib2 2026-04-30 03:56 1.2M
20260430T00Z_MSC_GDPS_WindV_IsbL-0700_LatLon0.15_PT006H.grib2 2026-04-30 03:56 1.2M
20260430T00Z_MSC_GDPS_WindV_IsbL-0750_LatLon0.15_PT006H.grib2 2026-04-30 03:56 1.3M
20260430T00Z_MSC_GDPS_WindV_IsbL-0800_LatLon0.15_PT006H.grib2 2026-04-30 03:56 1.3M
20260430T00Z_MSC_GDPS_WindV_IsbL-0850_LatLon0.15_PT006H.grib2 2026-04-30 03:56 1.4M
20260430T00Z_MSC_GDPS_WindV_IsbL-0875_LatLon0.15_PT006H.grib2 2026-04-30 03:56 1.4M
20260430T00Z_MSC_GDPS_WindV_IsbL-0900_LatLon0.15_PT006H.grib2 2026-04-30 03:56 1.4M
20260430T00Z_MSC_GDPS_WindV_IsbL-0925_LatLon0.15_PT006H.grib2 2026-04-30 03:56 1.4M
20260430T00Z_MSC_GDPS_WindV_IsbL-0950_LatLon0.15_PT006H.grib2 2026-04-30 03:56 1.4M
20260430T00Z_MSC_GDPS_WindV_IsbL-0970_LatLon0.15_PT006H.grib2 2026-04-30 03:56 1.4M
20260430T00Z_MSC_GDPS_WindV_IsbL-0985_LatLon0.15_PT006H.grib2 2026-04-30 03:56 1.4M
20260430T00Z_MSC_GDPS_WindV_IsbL-1000_LatLon0.15_PT006H.grib2 2026-04-30 03:56 1.4M
20260430T00Z_MSC_GDPS_WindV_IsbL-1015_LatLon0.15_PT006H.grib2 2026-04-30 03:56 1.3M